This demonstration page uses our WeatherBlox Daily Observations layout. Learn more.

Left ArrowRight Arrow

44.8408, -93.29828

Hourly Observations for September 30, 2022

Temp ( °F °C ) Dew Point ( °F °C ) Humidity (%) Winds ( mph kmh ) Pressure ( in mb ) Visibility ( mi km ) Precip ( " mm )
12:53 am 00:53 Mostly Clear 56 13.3 38 3.3 51 51 S 9 15 30.22 1023 10 16 0.00 0.00
1:53 am 01:53 Mostly Clear 54 12.2 39 3.9 57 57 SE 10 17 30.22 1023 10 16 0.00 0.00
2:53 am 02:53 Mostly Cloudy with Light Rain 54 12.2 42 5.6 64 64 undefined N/A 30.21 1023 10 16 0.01 0.13
3:53 am 03:53 Partly Cloudy 53 11.7 42 5.6 66 66 SE 7 11 30.20 1023 10 16 0.01 0.25
4:53 am 04:53 Partly Cloudy 52 11.1 41 5 66 66 SE 10 17 30.21 1023 10 16 0.00 0.00
5:53 am 05:53 Mostly Cloudy 52 11.1 41 5 66 66 SE 10 17 30.21 1023 10 16 0.00 0.00
6:53 am 06:53 Mostly Cloudy 51 10.6 41 5 68 68 SE 10 17 30.22 1023 10 16 0.00 0.00
7:53 am 07:53 Mostly Cloudy 52 11.1 41 5 66 66 SE 9 15 30.24 1024 10 16 0.00 0.00
8:53 am 08:53 Partly Cloudy 53 11.7 41 5 63 63 SSE 10 17 30.22 1023 10 16 0.00 0.00
9:53 am 09:53 Partly Cloudy 57 13.9 42 5.6 57 57 S 8 13 30.23 1024 10 16 0.00 0.00
10:53 am 10:53 Mostly Cloudy 60 15.6 43 6.1 53 53 SSE 10 17 30.20 1023 10 16 0.00 0.00
11:53 am 11:53 Mostly Cloudy 66 18.9 42 5.6 42 42 S 12 19 30.19 1022 10 16 0.00 0.00
12:53 pm 12:53 Mostly Cloudy 69 20.6 41 5 36 36 SSW 10 17 30.19 1022 10 16 0.00 0.00
1:53 pm 13:53 Partly Cloudy 71 21.7 41 5 34 34 S 14 22 30.17 1022 10 16 0.00 0.00
2:53 pm 14:53 Mostly Cloudy 70 21.1 40 4.4 33 33 SSE 8 13 30.14 1021 10 16 0.00 0.00
3:53 pm 15:53 Mostly Cloudy 70 21.1 40 4.4 33 33 S 8 13 30.14 1021 10 16 0.00 0.00
4:53 pm 16:53 Mostly Cloudy 69 20.6 42 5.6 37 37 S 12 19 30.14 1021 10 16 0.00 0.00
5:53 pm 17:53 Partly Cloudy 67 19.4 41 5 39 39 SSE 9 15 30.14 1021 10 16 0.00 0.00
6:53 pm 18:53 Mostly Cloudy 65 18.3 42 5.6 43 43 SSE 7 11 30.14 1021 10 16 0.00 0.00
7:53 pm 19:53 Partly Cloudy 63 17.2 43 6.1 48 48 SSE 7 11 30.14 1021 10 16 0.00 0.00
8:53 pm 20:53 Mostly Cloudy 64 17.8 42 5.6 45 45 SE 9 15 30.14 1021 10 16 0.00 0.00
9:53 pm 21:53 Mostly Cloudy 64 17.8 43 6.1 46 46 SSE 6 9 30.14 1021 10 16 0.00 0.00
10:53 pm 22:53 Cloudy 63 17.2 43 6.1 48 48 SSE 10 17 30.14 1021 10 16 0.00 0.00
11:53 pm 23:53 Cloudy 61 16.1 43 6.1 51 51 SE 7 11 30.15 1021 10 16 0.00 0.00

Powered by AerisWeather